TimeMST,TemperatureF,Dew PointF,Humidity,Sea Level PressureIn,VisibilityMPH,Wind Direction,Wind SpeedMPH,Gust SpeedMPH,PrecipitationIn,Events,Conditions,WindDirDegrees,DateUTC
1:53 AM,-2.9,-8.0,79,30.40,10.0,Calm,Calm,-,N/A,,Clear,0,2013-02-27 08:53:00
2:35 AM,-2.2,-7.6,78,30.17,10.0,WNW,3.5,-,N/A,,Scattered Clouds,300,2013-02-27 09:35:00
2:53 AM,8.1,3.9,83,30.35,10.0,WSW,6.9,-,N/A,,Partly Cloudy,250,2013-02-27 09:53:00
3:53 AM,9.0,3.9,80,30.36,10.0,WSW,12.7,-,N/A,,Clear,250,2013-02-27 10:53:00
4:53 AM,8.1,3.0,80,30.37,10.0,WSW,12.7,-,N/A,,Clear,250,2013-02-27 11:53:00
5:53 AM,7.0,1.9,80,30.41,10.0,SW,6.9,-,N/A,,Clear,230,2013-02-27 12:53:00
6:53 AM,9.0,3.0,77,30.45,10.0,West,5.8,-,N/A,,Clear,280,2013-02-27 13:53:00
7:53 AM,3.0,-0.9,84,30.52,10.0,Variable,5.8,-,N/A,,Clear,0,2013-02-27 14:53:00
8:53 AM,8.1,3.9,83,30.49,10.0,SW,4.6,-,N/A,,Clear,230,2013-02-27 15:53:00
9:53 AM,14.0,7.0,74,30.50,10.0,SSW,5.8,-,N/A,,Clear,200,2013-02-27 16:53:00
10:53 AM,17.1,7.0,65,30.49,10.0,WSW,19.6,-,N/A,,Clear,250,2013-02-27 17:53:00
11:53 AM,18.0,7.0,62,30.49,10.0,WSW,24.2,31.1,N/A,,Clear,240,2013-02-27 18:53:00
12:53 PM,18.0,8.1,65,30.48,10.0,SW,24.2,36.8,N/A,,Clear,230,2013-02-27 19:53:00
1:53 PM,19.9,9.0,62,30.47,10.0,SW,20.7,27.6,N/A,,Clear,230,2013-02-27 20:53:00
2:53 PM,19.9,9.0,62,30.43,10.0,SW,20.7,31.1,N/A,,Clear,230,2013-02-27 21:53:00
3:53 PM,19.9,10.0,65,30.40,10.0,WSW,20.7,28.8,N/A,,Clear,240,2013-02-27 22:53:00
4:53 PM,19.0,9.0,65,30.42,10.0,WSW,15.0,-,N/A,,Clear,250,2013-02-27 23:53:00
5:53 PM,17.1,7.0,65,30.44,10.0,WSW,11.5,-,N/A,,Clear,250,2013-02-28 00:53:00
6:53 PM,16.0,7.0,68,30.44,10.0,WSW,17.3,23.0,N/A,,Clear,240,2013-02-28 01:53:00
7:53 PM,17.1,6.1,62,30.45,10.0,WSW,13.8,-,N/A,,Partly Cloudy,240,2013-02-28 02:53:00
9:53 PM,15.1,5.0,64,30.42,10.0,WSW,13.8,-,N/A,,Clear,250,2013-02-28 04:53:00
10:53 PM,14.0,5.0,67,30.43,10.0,WSW,16.1,-,N/A,,Clear,240,2013-02-28 05:53:00
11:53 PM,14.0,5.0,67,30.43,10.0,WSW,17.3,-,N/A,,Clear,240,2013-02-28 06:53:00